#timestamp,LO_Frequency,Hit,StdDev 
1703278815.6,286047001.1,N
1703278835.4,286046998.9,N
1703278855.3,286046998.8,N
1703278875.1,286046998.5,N
1703278895.9,286046998.8,N
1703278915.7,286047000.7,N
1703278935.5,286046998.1,N
1703278955.4,286046999.9,N
1703278975.2,286047002.5,N
1703278995.0,286047000.0,N
1703278995.9,286047000.0,N
1703279015.8,286047001.0,N
1703279035.6,286047002.8,N
1703279055.4,286046998.5,N
1703279075.3,286047000.7,N
1703279095.1,286046998.1,N
1703279115.9,286046999.9,N
1703279135.7,286047000.8,N
1703279155.5,286047000.4,N
1703279175.4,286047000.7,N
1703279195.2,286047000.3,N
1703279215.0,286047000.7,N
1703279215.9,286047000.7,N
1703279235.8,286047002.8,N
1703279255.6,286047000.1,N
1703279275.5,286047000.7,N
1703279295.3,286047001.2,N
1703279315.1,286047000.0,N
1703279335.9,286047000.4,N
1703279355.7,286047000.6,N
1703279375.6,286047000.6,N
1703279395.4,286046999.8,N
1703279415.2,286047002.5,N
1703279435.1,286047002.7,N
1703279436.0,286047002.7,N
1703279455.8,286046998.5,N
1703279475.6,286047001.8,N
1703279495.5,286047002.6,N
1703279515.3,286046999.7,N
1703279535.2,286046998.4,N
1703279555.9,286047001.0,N
1703279575.7,286047001.0,N
1703279595.6,286047002.4,N
1703279615.4,286047002.4,N
1703279635.2,286047001.9,N
1703279655.1,286046999.7,N
1703279656.0,286046999.7,N
1703279675.8,286047004.4,Y
1703279695.7,286047000.6,P
1703279715.5,286046998.1,P
1703279735.3,286046999.6,N
1703279755.2,286046996.8,N
1703279775.0,286046998.8,N
1703279775.9,286046998.8,N
1703279795.7,286046999.0,N
1703279815.6,286046996.5,N
1703279835.4,286046998.6,N
1703279855.3,286046998.8,N
1703279875.1,286047000.8,N
1703279876.0,286047000.8,N
1703279895.8,286046999.9,N
1703279915.7,286046999.8,N
1703279935.5,286046998.4,N
1703279955.3,286046998.1,N
1703279975.2,286047001.1,N
1703279995.0,286047000.0,N
1703279995.9,286047000.0,N
1703280015.8,286046998.4,N
1703280035.6,286046996.9,N
1703280055.4,286046997.7,N
1703280075.3,286046998.4,N
1703280095.1,286046998.5,N
1703280115.8,286046999.1,N
1703280135.7,286046999.0,N
1703280155.5,286047000.7,N
1703280175.4,286047001.2,N
1703280195.2,286047000.8,N
1703280215.0,286046998.6,N
1703280215.9,286046998.6,N
1703280235.8,286047001.1,N
1703280255.6,286046998.8,N
1703280275.4,286046998.9,N
1703280295.3,286046998.7,N
1703280315.1,286046999.0,N
1703280335.9,286046998.1,N
1703280355.7,286046999.4,N
1703280375.5,286046999.0,N
1703280395.4,286046999.4,N
1703280415.2,286046997.3,N
1703280435.0,286046997.1,N
1703280436.0,286046997.1,N
1703280455.8,286046996.7,N
1703280475.6,286046999.4,N
1703280495.5,286046999.3,N
1703280515.3,286046999.1,N
1703280535.1,286046998.8,N
1703280555.9,286047000.8,N
1703280575.7,286046998.4,N
1703280595.5,286047002.5,N
1703280615.4,286047000.6,N
1703280635.2,286046999.9,N
1703280655.1,286046998.5,N
1703280656.0,286046998.5,N
1703280675.8,286046998.5,N
1703280695.6,286046999.0,N
1703280715.5,286046998.6,N
1703280735.3,286046999.0,N
1703280755.2,286047000.7,N
1703280775.9,286046998.6,N
1703280795.7,286047000.0,N
1703280815.6,286046998.4,N
1703280835.4,286046999.2,N
1703280855.2,286047001.2,N
1703280875.1,286047001.1,N
1703280876.0,286047001.1,N
1703280895.8,286047000.2,N
1703280915.7,286047011.9,Y
1703280935.5,286047002.6,P
1703280955.3,286047002.7,N
1703280975.2,286047000.9,N
1703280995.0,286047002.8,N
1703280995.9,286047002.8,N
1703281015.7,286047002.3,N
1703281035.6,286047002.7,N
1703281055.4,286047002.2,N
1703281075.3,286047002.3,N
1703281095.1,286046999.9,N
1703281096.0,286046999.9,N
1703281115.8,286047002.7,N
1703281135.7,286046998.2,N
1703281155.5,286046998.7,N
1703281175.3,286046999.8,N
1703281195.2,286047002.4,N
1703281215.0,286046999.8,N
1703281215.9,286046999.8,N
1703281235.8,286047000.7,N
1703281255.6,286047000.6,N
1703281275.4,286046999.8,N
1703281295.3,286047000.6,N
1703281315.1,286047001.1,N
1703281335.9,286047000.5,N
1703281355.7,286046999.8,N
1703281375.5,286047000.5,N
1703281395.4,286047000.4,N
1703281415.2,286046998.2,N
1703281435.0,286047000.8,N
1703281435.9,286047000.8,N
1703281455.8,286046991.6,Y
1703281475.6,286046988.0,P
1703281495.5,286046985.3,N
1703281515.3,286046988.9,N
1703281535.1,286046992.7,N
1703281555.9,286046989.7,N
1703281575.7,286046990.6,N
1703281595.5,286046991.1,N
1703281615.4,286046988.5,N
1703281635.2,286046989.2,N
1703281655.1,286046991.6,N
1703281656.0,286046991.6,N
1703281675.8,286046988.7,Y
1703281695.6,286046999.2,P
1703281715.5,286046998.3,N
1703281735.3,286046999.4,N
1703281755.1,286046996.9,N
1703281775.9,286047000.9,N
1703281795.7,286047002.3,N
1703281815.6,286047002.3,N
1703281835.4,286047001.1,N
1703281855.2,286047002.4,N
1703281875.1,286046999.8,N
1703281876.0,286046999.8,N
1703281895.8,286047000.8,N
1703281915.6,286047000.6,N
1703281935.5,286046999.0,N
1703281955.3,286046998.6,N
1703281975.2,286046999.9,N
1703281995.9,286047000.5,N
1703282015.7,286047001.6,N
1703282035.6,286047001.5,N
1703282055.4,286047002.7,N
1703282075.2,286047000.3,N
1703282095.1,286046998.5,N
1703282096.0,286046998.5,N
1703282115.8,286046998.1,N
1703282135.7,286047002.3,N
1703282155.5,286047002.2,N
1703282175.3,286046999.7,N
1703282195.2,286046999.9,N
1703282215.9,286046999.0,N
1703282235.7,286047000.5,N
1703282255.6,286047004.3,N
1703282275.4,286047002.1,N
1703282295.3,286047001.8,N
1703282315.1,286047005.1,Y
1703282316.0,286047005.1,P
1703282335.8,286046999.7,N
1703282355.7,286047002.5,N
1703282375.5,286047004.4,N
1703282395.4,286047002.4,N
